User: anonymous   Login
Location: Unspecified
(0.0000°N, 0.0000°E)
Time: 01:49:20
(UTC+00:00)
Language:

STARLINK-31750 - Orbit

View from above orbital plane
View from above orbital plane
View from above satellite
View from above satellite

Ground track
Ground track

The orbit is defined by the following mean orbital elements,

1 59552U          26145.64715088 +.00000000 +00000-0 +92430-4 0 00008
2 59552  43.0044 268.9328 0001643 287.5479  72.5193 15.27577409    01
Epoch (UTC): 25 May 2026 15:31:53
Eccentricity: 0.0001643
inclination: 43.0044°
perigee height: 482 km
apogee height: 484 km
right ascension of ascending node: 268.9328°
argument of perigee: 287.5479°
revolutions per day: 15.27577409
mean anomaly at epoch: 72.5193°

The dashed part of the orbit path shows where the satellite is in the earth's shadow,  

DLR